Regional Weather Roundup
Issued by NWS Little Rock, AR

Home | Current Version | Previous Version | Text Only | Print | Product List | Glossary On
Versions: 1 2 3 4 5 6 7 8 9 10 11 12 13 14 15 16 17 18 19 20 21 22 23 24 25 26 27 28 29 30 31 32 33 34 35 36 37 38 39 40 41 42 43 44 45 46 47 48 49 50
000
ASUS44 KLZK 070005
RWRLZK

WEATHER ROUNDUP FOR ARKANSAS
NATIONAL WEATHER SERVICE LITTLE ROCK AR
700 PM CDT WED MAY 06 2015

NOTE: "FAIR" INDICATES FEW OR NO CLOUDS BELOW 12,000 FEET WITH NO
SIGNIFICANT WEATHER AND/OR OBSTRUCTIONS TO VISIBILITY.

ARZ001-003-010-029-070100-
NORTHWEST ARKANSAS

CITY           SKY/WX    TMP DP  RH WIND       PRES   REMARKS
FAYETTEVILLE   MOSUNNY   73  60  63 SE9       29.96S
6HR MIN TEMP:  73; 6HR MAX TEMP:  77;

FORT SMITH     PTSUNNY   79  52  38 S9        29.92F
6HR MIN TEMP:  78; 6HR MAX TEMP:  82;

HARRISON       MOSUNNY   75  57  53 SE14      30.00F
6HR MIN TEMP:  71; 6HR MAX TEMP:  79;

BENTONVILLE    MOSUNNY   73  55  53 S10       29.96S
6HR MIN TEMP:  73; 6HR MAX TEMP:  79;

ROGERS         SUNNY     74  56  53 S12       29.97R
6HR MIN TEMP:  74; 6HR MAX TEMP:  78; 6HR PCP:  0.10;

SILOAM SPGS    CLOUDY    72  55  56 SE9       29.95F
6HR MIN TEMP:  72; 6HR MAX TEMP:  79;

HIGHFILL       MOSUNNY   73  57  57 S12       29.95S
6HR MIN TEMP:  73; 6HR MAX TEMP:  79; 6HR PCP: TRACE;

SPRINGDALE     MOSUNNY   73  57  56 SE12G23   29.99S
$$

ARZ004-005-016-070100-
NORTH CENTRAL ARKANSAS

CITY           SKY/WX    TMP DP  RH WIND       PRES   REMARKS
BATESVILLE     MOSUNNY   79  55  44 SE5       30.00F
6HR MIN TEMP:  79; 6HR MAX TEMP:  82;

FLIPPIN        PTSUNNY   77  55  47 SE6       29.98S
6HR MIN TEMP:  75; 6HR MAX TEMP:  82;

MTN HOME         N/A     75  55  49 S5        29.99F
6HR MIN TEMP:  75; 6HR MAX TEMP:  81; 6HR PCP: TRACE;

$$

ARZ040-041-070100-
WEST CENTRAL ARKANSAS

CITY           SKY/WX    TMP DP  RH WIND       PRES   REMARKS
MENA           CLOUDY    77  59  53 CALM      29.97F
MOUNT IDA      CLOUDY    78  59  51 VRB5      29.94F
6HR MIN TEMP:  77; 6HR MAX TEMP:  81;

$$

ARZ009-017-025-026-028-070100-
NORTHEAST ARKANSAS

CITY           SKY/WX    TMP DP  RH WIND       PRES   REMARKS
CORNING          N/A     82  50  32 S12       30.02S
JONESBORO      CLEAR     80  50  34 SE10      30.01F
6HR MIN TEMP:  79; 6HR MAX TEMP:  85;

NEWPORT        CLEAR     81  52  36 SE12      30.01F
6HR MIN TEMP:  81; 6HR MAX TEMP:  87;

WALNUT RIDGE   CLEAR     81  50  34 SE14      30.00F
6HR MIN TEMP:  81; 6HR MAX TEMP:  86;

BLYTHEVILLE    CLEAR     82  50  32 SE9       30.03F
6HR MIN TEMP:  82; 6HR MAX TEMP:  86;

$$

ARZ022-023-033-042-044-070100-
CENTRAL ARKANSAS

CITY           SKY/WX    TMP DP  RH WIND       PRES   REMARKS
LITTLE ROCK    PTSUNNY   81  56  42 S6        29.98F
6HR MIN TEMP:  81; 6HR MAX TEMP:  85;

N LITTLE ROCK  PTSUNNY   80  60  51 S8        29.98F
6HR MIN TEMP:  80; 6HR MAX TEMP:  83;

JACKSONVILLE   PTSUNNY   80  58  46 S6        29.98F
6HR MIN TEMP:  80; 6HR MAX TEMP:  85;

SEARCY         MOSUNNY   79  58  48 S8        30.00F
6HR MIN TEMP:  79; 6HR MAX TEMP:  85;

HOT SPRINGS    MOSUNNY   79  59  50 S10       29.97F
6HR MIN TEMP:  79; 6HR MAX TEMP:  83;

RUSSELLVILLE   PTSUNNY   79  59  50 VRB5      29.96F
6HR MIN TEMP:  79; 6HR MAX TEMP:  83;

CLINTON        FAIR      77  59  53 SE3       30.00S
$$

ARZ036-070100-
EAST ARKANSAS

CITY           SKY/WX    TMP DP  RH WIND       PRES   REMARKS
WEST MEMPHIS   CLEAR     78  53  41 SE12      30.02F
6HR MIN TEMP:  78; 6HR MAX TEMP:  84;

$$

ARZ050-053-066-070-073-070100-
SOUTHWEST ARKANSAS

CITY           SKY/WX    TMP DP  RH WIND       PRES   REMARKS
ARKADELPHIA    FAIR      81  64  55 VRB6      29.97F
6HR MIN TEMP:  80; 6HR MAX TEMP:  85;

CAMDEN         MOSUNNY   77  59  53 NE3       29.97F
TEXARKANA      PTSUNNY   77  64  64 SE6       29.94F
6HR MIN TEMP:  77; 6HR MAX TEMP:  82;

EL DORADO      MOSUNNY   79  59  50 SE7       29.97F
6HR MIN TEMP:  79; 6HR MAX TEMP:  85;

DE QUEEN       PTSUNNY   76  63  64 SE5       29.91F
6HR MIN TEMP:  76; 6HR MAX TEMP:  80;

$$

ARZ056-057-069-070100-
SOUTHEAST ARKANSAS

CITY           SKY/WX    TMP DP  RH WIND       PRES   REMARKS
PINE BLUFF     MOSUNNY   79  57  46 S9        29.99F
6HR MIN TEMP:  79; 6HR MAX TEMP:  85;

STUTTGART      PTCLDY    82  54  36 SE8       30.00S
6HR MIN TEMP:  81; 6HR MAX TEMP:  84;

MONTICELLO     CLEAR     81  56  42 SE6       29.99F
6HR MIN TEMP:  80; 6HR MAX TEMP:  85;


$$




USA.gov is the U.S. government's official web portal to all federal, state and local government web resources and services.